Flag for Sweden Weather past 2 weeks in Eskilstuna, Sweden

Now
39 °F

Overcast.


Feels Like: 39 °F
Forecast: 44 / 57 °F
Wind: No wind

Location: Vasteras / Hasslo

Current Time: Sep 24, 2014 at 2:28:30 AM

Latest Report: Sep 24, 2014 at 1:50 AM


Visibility: N/A

Pressure: 29.92 "Hg

Humidity: 81%

Dew point: 34 °F

Location of EskilstunaLocation

Historic Weather in Eskilstuna — Graph

°F

Eskilstuna temperature yesterday

Maximum temperature yesterday: 50 °F (at 3:20 PM)
Minimum temperature yesterday: 34 °F (at 6:20 AM)
Average temperature yesterday: 41 °F

Past Weeks' High & Low Weather Summary

 TemperatureHumidityPressure
High70 °F (Sep 15, 4:50 PM)100% (Sep 9, 2:50 AM)30.48 "Hg (Sep 9, 2:50 AM)
Low34 °F (Sep 23, 6:20 AM)40% (Sep 23, 4:20 PM)29.53 "Hg (Sep 22, 3:20 AM)
Average52 °F86%30.15 "Hg
* Reported Sep 9 1:20 AM — Sep 24 1:20 AM, Eskilstuna, Weather by CustomWeather, © 2014

Note: Actual official high and low records may vary slightly from our data, if they occured in-between our weather recording intervals... More about our weather records

Advertising

Eskilstuna weather history for previous 24 hours

 ConditionsComfort  
Time TempWeatherWind HumidityBarometerVisibility
1:20 AM
Sep 24
39 °FPassing clouds.1 mph81%29.92 "HgN/A
12:50 AM39 °FOvercast.No wind81%29.92 "HgN/A
12:20 AM39 °FOvercast.No wind70%29.92 "HgN/A
11:50 PM
Sep 23
39 °FOvercast.1 mph75%29.92 "HgN/A
11:20 PM37 °FClear.No wind87%29.95 "Hg10 mi
10:50 PM37 °FClear.No wind87%29.95 "Hg10 mi
10:20 PM37 °FClear.1 mph87%29.95 "Hg10 mi
9:50 PM36 °FClear.No wind93%29.95 "Hg10 mi
9:20 PM36 °FClear.No wind87%29.95 "Hg10 mi
8:50 PM36 °FClear.No wind81%29.95 "Hg10 mi
8:20 PM36 °FClear.1 mph81%29.98 "Hg10 mi
7:50 PM36 °FSunny.No wind81%29.98 "Hg10 mi
7:20 PM37 °FSunny.No wind75%29.98 "Hg10 mi
6:50 PM41 °FSunny.1 mph57%29.98 "Hg10 mi
6:20 PM43 °FSunny.2 mph61%29.98 "Hg10 mi
5:50 PM45 °FSunny.6 mph49%29.98 "Hg10 mi
5:20 PM46 °FSunny.5 mph46%29.98 "Hg10 mi
4:50 PM48 °FSunny.8 mph43%29.98 "Hg10 mi
4:20 PM48 °FSunny.12 mph40%29.98 "Hg10 mi
3:50 PM50 °FPassing clouds.10 mph43%29.98 "HgN/A
3:20 PM50 °FSunny.10 mph43%29.98 "Hg10 mi
2:50 PM48 °FSunny.9 mph50%29.98 "Hg10 mi
2:20 PM48 °FSunny.7 mph50%29.98 "Hg10 mi
1:50 PM48 °FPassing clouds.7 mph54%29.98 "HgN/A
1:20 PM46 °FPassing clouds.9 mph57%30.01 "HgN/A
12:20 PM46 °FScattered clouds.9 mph66%30.01 "HgN/A
11:50 AM45 °FScattered clouds.8 mph71%30.01 "HgN/A
11:20 AM46 °FPassing clouds.10 mph66%30.01 "HgN/A
10:50 AM45 °FPassing clouds.10 mph71%30.01 "HgN/A
10:20 AM43 °FPassing clouds.12 mph76%30.01 "HgN/A
9:20 AM39 °FPassing clouds.14 mph81%30.01 "HgN/A
8:20 AM37 °FSunny.10 mph81%29.98 "Hg10 mi
7:20 AM34 °FClear.8 mph87%29.98 "Hg10 mi
6:50 AM34 °FClear.9 mph87%29.98 "Hg10 mi
6:20 AM34 °FClear.8 mph87%29.98 "Hg10 mi
5:20 AM36 °FChilly.9 mph81%29.98 "HgN/A
4:50 AM36 °FChilly.7 mph81%29.98 "HgN/A
4:20 AM36 °FChilly.9 mph81%29.98 "HgN/A
3:50 AM37 °FPassing clouds.12 mph81%29.98 "HgN/A
3:20 AM37 °FPassing clouds.7 mph81%29.98 "HgN/A
2:20 AM37 °FPassing clouds.7 mph81%29.98 "HgN/A
Weather by CustomWeather, © 2014

See weather overviewHow to use our weather pages